VK3GY-13 Weather Reports


Display with metric or nautical units.
time (UTC)temp
F
wind
direction
speed
MPH
gust
MPH
rain 1hr
in
rain 24hr
in
rain mn
in
humidity
%
barometer
mb
20260904172007 57 340 5.0 12.0 0.03 0.14 0.14 88 1006.4
20260904171005 57 1 6.0 12.0 0.03 0.13 0.13 88 1006.6
20260904170005 57 6 5.0 13.0 0.03 0.13 0.13 88 1006.7
20260904165004 57 3 10.0 18.0 0.03 0.13 0.13 89 1006.4
20260904164005 57 12 7.0 15.0 0.02 0.12 0.12 89 1006.9
20260904163005 56 9 5.0 10.0 0.01 0.11 0.11 89 1007.7
20260904162007 56 5 2.0 8.0 0.02 0.11 0.11 88 1008.3
20260904161005 56 9 2.0 10.0 0.01 0.10 0.10 88 1008.4
20260904160005 57 339 2.0 10.0 0.02 0.10 0.10 88 1008.5
20260904155006 57 332 1.0 3.0 0.03 0.10 0.10 88 1008.7
20260904153005 57 331 2.0 9.0 0.10 0.10 0.10 87 1009.2
20260904152005 57 330 3.0 8.0 0.09 0.09 0.09 87 1009.2
20260904145005 58 333 6.0 13.0 0.07 0.07 0.07 84 1009.7
20260904144005 59 324 3.0 12.0 0.03 0.03 0.03 83 1009.9
20260904143006 59 308 5.0 13.0 0.00 0.00 0.00 82 1010.1
20260904142007 59 310 6.0 15.0 0.00 0.00 0.00 81 1009.7
20260904141006 59 313 3.0 9.0 0.00 0.00 0.00 80 1009.7
20260904140007 59 315 3.0 12.0 0.00 0.00 0.00 80 1009.7
20260904134004 59 341 3.0 10.0 0.00 0.00 0.00 80 1010.1
20260904133005 58 350 4.0 8.0 0.00 0.00 0.00 80 1010.0
20260904132005 57 16 3.0 6.0 0.00 0.00 0.00 81 1009.9
20260904131005 57 287 3.0 8.0 0.00 0.00 0.00 81 1010.2
20260904125005 56 18 1.0 3.0 0.00 0.00 0.00 81 1010.5
20260904124005 56 18 2.0 3.0 0.00 0.00 0.00 81 1010.7
20260904123005 56 18 1.0 5.0 0.00 0.00 0.00 81 1011.0
20260904121004 55 319 1.0 3.0 0.00 0.00 0.00 79 1011.5
20260904120005 55 319 0.0 2.0 0.00 0.00 0.00 78 1011.8
20260904115006 55 319 1.0 2.0 0.00 0.00 0.00 78 1012.0
20260904114011 55 319 1.0 2.0 0.00 0.00 0.00 77 1012.1
20260904113012 55 319 1.0 2.0 0.00 0.00 0.00 77 1012.2
20260904112013 55 319 0.0 1.0 0.00 0.00 0.00 77 1012.4
20260904111011 55 319 1.0 1.0 0.00 0.00 0.00 77 1012.4
20260904110011 55 319 1.0 3.0 0.00 0.00 0.00 77 1012.4
20260904105012 55 319 2.0 3.0 0.00 0.00 0.00 76 1012.5
20260904104010 54 318 1.0 2.0 0.00 0.00 0.00 76 1012.7
20260904102013 55 318 0.0 2.0 0.00 0.00 0.00 75 1012.7
20260904100011 55 318 0.0 2.0 0.00 0.00 0.00 74 1013.0
20260904095010 55 318 0.0 2.0 0.00 0.00 0.00 74 1013.0
20260904094013 55 318 0.0 2.0 0.00 0.00 0.00 74 1012.9
20260904092011 56 313 1.0 7.0 0.00 0.00 0.00 73 1013.2
20260904091011 56 319 2.0 8.0 0.00 0.00 0.00 73 1013.2
20260904085011 56 335 5.0 12.0 0.00 0.00 0.00 73 1013.2
20260904083011 57 349 5.0 10.0 0.00 0.00 0.00 71 1013.4
20260904082010 57 354 5.0 10.0 0.00 0.00 0.00 71 1013.5
20260904081011 58 346 3.0 8.0 0.00 0.00 0.00 70 1013.5
20260904075011 58 324 3.0 8.0 0.00 0.00 0.00 70 1013.8
20260904074011 58 355 3.0 10.0 0.00 0.00 0.00 69 1013.7
20260904073011 59 356 5.0 12.0 0.00 0.00 0.00 69 1013.6
20260904072010 59 325 3.0 10.0 0.00 0.00 0.00 69 1013.6
20260904070011 60 356 3.0 8.0 0.00 0.00 0.00 67 1013.6
20260904065010 60 333 3.0 12.0 0.00 0.00 0.00 65 1013.7
20260904064010 61 340 5.0 10.0 0.00 0.00 0.00 64 1013.8
20260904063011 61 318 5.0 12.0 0.00 0.00 0.00 65 1013.9
20260904062011 61 284 5.0 15.0 0.00 0.00 0.00 64 1014.0
20260904061011 61 324 5.0 12.0 0.00 0.00 0.00 64 1014.0
20260904055010 60 316 6.0 13.0 0.00 0.00 0.00 64 1014.2
20260904054013 61 320 5.0 13.0 0.00 0.00 0.00 64 1014.5
20260904053011 61 333 5.0 12.0 0.00 0.00 0.00 63 1014.3
20260904052012 61 329 6.0 13.0 0.00 0.00 0.00 63 1014.5
20260904050011 62 319 5.0 14.0 0.00 0.00 0.00 60 1014.7
20260904045011 63 302 9.0 16.0 0.00 0.00 0.00 57 1014.6
20260904043011 63 322 5.0 16.0 0.00 0.00 0.00 56 1014.5
20260904042011 62 294 6.0 13.0 0.00 0.00 0.00 58 1014.7
20260904041011 61 289 7.0 14.0 0.00 0.00 0.00 57 1014.9
20260904040013 62 282 6.0 12.0 0.00 0.00 0.00 55 1014.9
20260904035010 61 309 6.0 16.0 0.00 0.00 0.00 55 1015.0
20260904034011 61 293 9.0 15.0 0.00 0.00 0.00 54 1015.0
20260904033011 62 290 9.0 20.0 0.00 0.00 0.00 53 1015.2
20260904032011 61 293 7.0 15.0 0.00 0.00 0.00 56 1015.3
20260904031010 61 290 9.0 16.0 0.00 0.00 0.00 55 1015.5
20260904030011 61 278 6.0 14.0 0.00 0.00 0.00 54 1015.6
20260904025011 61 299 8.0 17.0 0.00 0.00 0.00 55 1015.7
20260904024011 61 285 5.0 12.0 0.00 0.00 0.00 54 1016.0
20260904022013 62 289 9.0 14.0 0.00 0.00 0.00 51 1016.2
20260904021014 62 296 8.0 14.0 0.00 0.00 0.00 53 1016.3
20260904014011 60 301 8.0 14.0 0.00 0.00 0.00 52 1016.8
20260904013011 60 281 7.0 15.0 0.00 0.00 0.00 53 1017.1
20260904012011 60 285 7.0 14.0 0.00 0.00 0.00 54 1017.3
20260904011012 60 293 8.0 17.0 0.00 0.00 0.00 53 1017.5
20260904010011 61 308 9.0 18.0 0.00 0.00 0.00 53 1017.6
20260904004010 59 311 9.0 16.0 0.00 0.00 0.00 57 1017.6
20260904003012 59 292 10.0 17.0 0.00 0.00 0.00 58 1017.8
20260904001011 58 286 5.0 13.0 0.00 0.00 0.00 63 1018.1
20260904000011 57 308 7.0 13.0 0.00 0.00 0.00 65 1018.5
20260903235011 56 291 6.0 13.0 0.00 0.00 0.00 66 1018.6
20260903234011 56 324 3.0 10.0 0.00 0.00 0.00 69 1018.6
20260903233011 56 326 5.0 10.0 0.00 0.00 0.00 71 1018.6
20260903231011 54 301 5.0 10.0 0.00 0.00 0.00 73 1018.7
20260903230012 53 288 4.0 9.0 0.00 0.00 0.00 75 1018.8
20260903225011 52 304 4.0 8.0 0.00 0.00 0.00 77 1018.7
20260903224011 51 315 3.0 7.0 0.00 0.00 0.00 79 1018.7
20260903222011 48 328 2.0 6.0 0.00 0.00 0.00 86 1018.5
20260903220011 45 333 2.0 3.0 0.00 0.00 0.00 88 1018.4
20260903215012 44 333 1.0 3.0 0.00 0.00 0.00 88 1018.3
20260903214011 43 333 1.0 2.0 0.00 0.00 0.00 88 1018.2
20260903213011 42 333 1.0 2.0 0.00 0.00 0.00 87 1018.1
20260903212011 42 333 1.0 3.0 0.00 0.00 0.00 87 1018.0
20260903211010 42 333 1.0 2.0 0.00 0.00 0.00 87 1018.0
20260903210011 42 333 0.0 1.0 0.00 0.00 0.00 86 1017.9
20260903205011 42 333 1.0 2.0 0.00 0.00 0.00 86 1017.7
20260903203011 43 333 1.0 3.0 0.00 0.00 0.00 86 1017.5
20260903202012 43 333 1.0 3.0 0.00 0.00 0.00 86 1017.4
20260903201011 43 333 1.0 3.0 0.00 0.00 0.00 86 1017.5
20260903200010 43 333 1.0 6.0 0.00 0.00 0.00 85 1017.5
20260903195011 44 319 1.0 3.0 0.00 0.00 0.00 85 1017.5
20260903193012 44 317 2.0 3.0 0.00 0.00 0.00 84 1017.6
20260903192011 45 317 2.0 3.0 0.00 0.00 0.00 84 1017.5
20260903190011 46 317 2.0 3.0 0.00 0.00 0.00 85 1017.4
20260903185012 46 313 2.0 5.0 0.00 0.00 0.00 85 1017.3
20260903184011 46 313 2.0 3.0 0.00 0.00 0.00 85 1017.4
20260903183011 46 312 2.0 3.0 0.00 0.00 0.00 85 1017.3
20260903182013 46 312 1.0 5.0 0.00 0.00 0.00 85 1017.2
20260903181011 47 312 3.0 7.0 0.00 0.00 0.00 86 1017.3
20260903180011 47 300 3.0 7.0 0.00 0.00 0.00 86 1017.1
20260903174011 46 318 2.0 6.0 0.00 0.00 0.00 86 1017.1